Regional Weather Roundup
Issued by NWS Newport/Morehead, NC

Current Version | Previous Version | Text Only | Print | Product List | Glossary On
Versions: 1 2 3 4 5 6 7 8 9 10 11 12 13 14 15 16 17 18 19 20 21 22 23 24 25 26 27 28 29 30 31 32 33 34 35 36 37 38 39 40 41 42 43 44 45 46 47 48 49 50
000 ASUS42 KMHX 232025 RWRMHX WEATHER ROUNDUP FOR EASTERN NORTH CAROLINA NATIONAL WEATHER SERVICE NEWPORT/MOREHEAD CITY NC 400 PM EDT SAT JUL 23 2016 NOTE: "FAIR" INDICATES FEW OR NO CLOUDS BELOW 12,000 FEET WITH NO SIGNIFICANT WEATHER AND/OR OBSTRUCTIONS TO VISIBILITY NCZ015>017-031-032-045>047-102-103-232100- NORTH COAST CITY SKY/WX TMP DP RH WIND PRES REMARKS EDENTON SUNNY 94 73 50 SW7 29.95F HX 103 ELIZABETH CITY SUNNY 92 74 55 SW13 29.94F HX 101 KITTY HAWK CLEAR 97 72 44 SW10 29.94F HX 106 MANTEO N/A 91 74 57 SW10 29.95F HX 101 $$ NCZ045>047-081-094-103-104-232100- CENTRAL COAST CITY SKY/WX TMP DP RH WIND PRES REMARKS FRISCO SUNNY 88 76 67 SW13 29.99F $$ NCZ095-097-098-100-101-232100- SOUTHERN COAST CITY SKY/WX TMP DP RH WIND PRES REMARKS BEAUFORT SUNNY 86 76 71 MISG 29.99F CEDAR ISLAND NOT AVBL JACKSONVILLE SUNNY 91 72 53 S7 29.97F PINEY ISLAND NOT AVBL WILMINGTON MOSUNNY 90 73 57 S5 29.97F $$ NCZ011>013-027>030-043-044-078>080-089-090>093-098-232100- COASTAL PLAIN CITY SKY/WX TMP DP RH WIND PRES REMARKS AHOSKIE SUNNY 91 74 59 S5 29.94F HX 100 CLINTON SUNNY 93 76 57 CALM 29.95F HX 105 ELIZABETHTOWN PTSUNNY 94 74 52 S6 29.96F HX 105 GOLDSBORO MOSUNNY 92 76 60 S6 29.94F HX 103 GREENVILLE MOSUNNY 95 73 49 SW7 29.97F HX 105 HAVELOCK MOSUNNY 90 74 59 S10 29.98F KENANSVILLE MOSUNNY 91 73 55 CALM 29.96F HAZE KINSTON MOSUNNY 93 73 52 S7 29.96F HX 102 NEW BERN MOSUNNY 90 73 57 S13 29.97F RICHLANDS PTSUNNY 90 76 63 SE9 29.96F HX 101 ROCKY MOUNT MOSUNNY 94 77 57 S6 29.95F HX 108 WASHINGTON MOSUNNY 92 75 58 S9 29.95F HX 102 WHITEVILLE MOSUNNY 92 75 57 SW3 29.95F HX 102 $$ AMZ130-135-150-152-154-156-158-170-250-252-270-ANZ085-086-088-633-658-670-232100- MARINE OBSERVATIONS STATION/POSITION TIME TEMP WIND PRES WAVE SWELL AIR SEA DIR/SP/G HT/PER HT/PER (UTC) (F) (DEG/KT/KT) (MB) (FT/S) (FT/S) CHESAPEAKE LIGHT NOT AVBL 64 E VA BEACH 1950 82 81 210/ 10/ 12 1013.9 3/ 9 2/ 9 DUCK 2000 89 61 220/ 11/ 12 1013.2 2 E DUCK 1911 74 N/A 1/ 8 OREGON INLET 2000 85 85 190/ 18/ 21 1014.5 13E OREGON INLT 2000 83 N/A 2/ 8 2/ 8 HATTERAS CG 2000 86 83 210/ 7/ 14 1015.0 DIAMOND BUOY 1950 85 86 220/ 14/ 16 1015.6 2/ 8 2/ 8 CAPE LOOKOUT 2000 86 210/ 8/ 11 1015.3 BEAUFORT LAB 2000 85 84 210/ 8/ 12 1014.8 30 SE NEW RVR IN 2008 84 85 200/ 8/ 12 1015.6 30 SE NEW RVR IN 1925 85 N/A 2/ 8 27 SE WRIGHTSVLE 2008 84 85 190/ 8/ 12 1015.8 5 SE WRIGHTSVLE 2008 84 84 190/ 14/ 16 1016.1 225 S CAPE HAT 1950 83 88 60/ 2/ 4 1016.8 3/ 8 3/ 8 41 SE CHARLESTON 1950 84 87 150/ 10/ 10 1015.8 3/ 8 3/ 8 $$

USA.gov is the U.S. government's official web portal to all federal, state and local government web resources and services.